Weather History for Binghamton, NY

Change the Weather History Date:

Wednesday, January 23, 2013

  Actual Average Record
Temperature  
Mean Temperature 5 °F 22 °F  
Max Temperature 10 °F 29 °F 56 °F (1967)
Min Temperature -1 °F 15 °F -13 °F (1976)
Degree Days  
Heating Degree Days 60 43  
Month to date heating degree days 878 983  
Since 1 July heating degree days 3419 3728  
Cooling Degree Days 0 0  
Month to date cooling degree days 0 0  
Year to date cooling degree days 0 0  
Moisture  
Dew Point -5 °F    
Average Humidity 62    
Maximum Humidity 79    
Minimum Humidity 45    
Precipitation  
Precipitation T in 0.08 in 1.20 in (1965)
Month to date precipitation 0.57 1.83  
Year to date precipitation 0.57 1.83  
Snow  
Snow T in 0.70 in 8.60 in (1965)
Month to date snowfall 7.7 16.7  
Since 1 July snowfall 32.7 41.3  
Snow Depth 1.00 in    
Sea Level Pressure  
Sea Level Pressure 30.14 in    
Wind  
Wind Speed 8 mph (West)    
Max Wind Speed 16 mph    
Max Gust Speed 22 mph    
Visibility 10 miles    
Events Snow    
T = Trace of Precipitation, MM = Missing Value Source: NWS Daily Summary

Daily Weather History Graph

Daily Weather History Graph

Search for Another Location

Airport:

Trip Planner

Search our weather history database for the weather conditions in past years. The results will help you decide how hot, cold, wet, or windy it might be!

Date:

Astronomy

Jan. 23, 2013 Rise Set
Actual Time 7:25 AM EST 5:07 PM EST
Civil Twilight 6:54 AM EST 5:37 PM EST
Nautical Twilight 6:20 AM EST 6:11 PM EST
Astronomical Twilight 5:47 AM EST 6:44 PM EST
Moon 2:14 PM EST (1/23) 4:35 AM EST (1/23)
Length of Visible Light 10h 42m
Length of Day
9h 42m
Waxing Gibbous, 89% of the Moon is Illuminated
Jan 23
Waxing Gibbous
Jan 26
Full
Feb 3
Last Quarter
Feb 10
New
Feb 17
First Quarter

Hourly Weather History & Observations

Time (EST) Temp. Windchill Dew Point Humidity Pressure Visibility Wind Dir Wind Speed Gust Speed Precip Events Conditions
12:53 AM 1.0 °F -14.9 °F -5.1 °F 75% 30.12 in 10.0 mi West 10.4 mph - N/A   Clear
1:53 AM -0.0 °F -15.3 °F -5.1 °F 79% 30.12 in 10.0 mi West 9.2 mph - N/A   Clear
2:53 AM -0.0 °F -15.3 °F -6.0 °F 76% 30.14 in 10.0 mi West 9.2 mph - N/A   Partly Cloudy
3:53 AM -0.0 °F -15.3 °F -6.0 °F 76% 30.13 in 10.0 mi West 9.2 mph - N/A   Clear
4:53 AM -0.0 °F -15.3 °F -6.0 °F 76% 30.14 in 10.0 mi West 9.2 mph - N/A   Clear
5:53 AM -0.0 °F -14.2 °F -6.0 °F 76% 30.15 in 10.0 mi West 8.1 mph - N/A   Clear
6:53 AM -0.9 °F -16.4 °F -6.0 °F 79% 30.16 in 10.0 mi West 9.2 mph - N/A   Partly Cloudy
7:53 AM -0.9 °F -15.3 °F -6.0 °F 79% 30.16 in 10.0 mi West 8.1 mph - N/A   Partly Cloudy
8:53 AM 1.9 °F -11.8 °F -5.1 °F 72% 30.17 in 10.0 mi West 8.1 mph - N/A   Clear
9:53 AM 3.9 °F -10.4 °F -5.1 °F 66% 30.19 in 10.0 mi WNW 9.2 mph - N/A   Partly Cloudy
10:39 AM 6.8 °F -5.9 °F -4.0 °F 61% 30.07 in 10.0 mi WNW 8.1 mph 16.1 mph N/A   Mostly Cloudy
10:53 AM 6.1 °F -9.5 °F -5.1 °F 60% 30.19 in 10.0 mi WNW 11.5 mph - N/A   Overcast
11:53 AM 7.0 °F -5.7 °F -2.9 °F 64% 30.16 in 6.0 mi WNW 8.1 mph 17.3 mph 0.00 in Snow Light Snow
12:53 PM 7.0 °F -9.1 °F -6.0 °F 55% 30.14 in 10.0 mi WNW 12.7 mph - 0.00 in   Overcast
1:53 PM 8.1 °F -7.0 °F -9.9 °F 44% 30.13 in 10.0 mi NW 11.5 mph 18.4 mph N/A   Overcast
2:53 PM 8.1 °F -4.3 °F -7.1 °F 50% 30.14 in 10.0 mi NNW 8.1 mph - N/A   Mostly Cloudy
3:53 PM 8.1 °F -7.0 °F -6.0 °F 53% 30.14 in 10.0 mi West 11.5 mph 16.1 mph N/A   Scattered Clouds
4:53 PM 8.1 °F -3.2 °F -5.1 °F 55% 30.14 in 10.0 mi WNW 6.9 mph - N/A   Partly Cloudy
5:53 PM 6.1 °F -0.9 °F -4.0 °F 63% 30.15 in 10.0 mi West 3.5 mph - N/A   Clear
6:53 PM 6.1 °F - -4.0 °F 63% 30.15 in 10.0 mi Calm Calm - N/A   Scattered Clouds
7:53 PM 5.0 °F -4.1 °F -6.0 °F 61% 30.14 in 10.0 mi SW 4.6 mph - N/A   Partly Cloudy
8:53 PM 5.0 °F -4.1 °F -7.1 °F 58% 30.12 in 10.0 mi SW 4.6 mph - N/A   Clear
9:53 PM 3.9 °F -6.9 °F -6.0 °F 64% 30.12 in 10.0 mi SW 5.8 mph - N/A   Clear
10:53 PM 3.9 °F -5.3 °F -5.1 °F 66% 30.12 in 10.0 mi SW 4.6 mph - N/A   Clear
11:53 PM 3.9 °F -5.3 °F -2.9 °F 73% 30.11 in 10.0 mi SW 4.6 mph - N/A   Overcast